Flag for Canada Weather past 2 weeks in Brandon, Manitoba, Canada

Now
-17 °F

Overcast.


Feels Like: -34 °F
Forecast: -11 / 6 °F
Wind: 8 mph from West

Location: Brandon

Current Time: Feb 27, 2015 at 9:28:50 AM

Latest Report: Feb 27, 2015 at 9:00 AM


Visibility: 15 mi

Pressure: 30.49 "Hg

Humidity: 69%

Dew point: -24 °F

Location of BrandonLocation

Historic Weather in Brandon — Graph

°F

Brandon temperature yesterday

Maximum temperature yesterday: 5 °F (at 4:00 PM)
Minimum temperature yesterday: -20 °F (at 4:00 AM)
Average temperature yesterday: -9 °F

Past Weeks' High & Low Weather Summary

 TemperatureHumidityPressure
High30 °F (Feb 23, 10:00 PM)93% (Feb 20, 2:00 AM)30.88 "Hg (Feb 20, 2:00 AM)
Low-33 °F (Feb 22, 5:00 AM)52% (Feb 24, 2:00 PM)29.76 "Hg (Feb 20, 2:00 AM)
Average-3 °F73%30.35 "Hg
* Reported Feb 12 8:00 AM — Feb 27 8:00 AM, Brandon, Weather by CustomWeather, © 2015

Note: Actual official high and low records may vary slightly from our data, if they occured in-between our weather recording intervals... More about our weather records

Advertising

Brandon weather history for previous 24 hours

 ConditionsComfort  
Time TempWeatherWind HumidityBarometerVisibility
8:00 AM
Fri, Feb 27
-18 °FPartly sunny.8 mph69%30.50 "Hg15 mi
7:00 AM-20 °FClear.7 mph75%30.50 "Hg15 mi
6:00 AM-18 °FClear.10 mph75%30.51 "Hg15 mi
5:00 AM-17 °FClear.12 mph76%30.51 "Hg15 mi
4:00 AM-15 °FClear.12 mph76%30.52 "Hg15 mi
3:00 AM-13 °FClear.13 mph76%30.53 "Hg15 mi
2:00 AM-13 °FClear.13 mph76%30.54 "Hg15 mi
1:00 AM-11 °FClear.13 mph76%30.55 "Hg15 mi
12:00 AM-11 °FClear.12 mph70%30.56 "Hg15 mi
11:00 PM
Thu, Feb 26
-8 °FClear.13 mph70%30.59 "Hg15 mi
10:00 PM-9 °FClear.13 mph77%30.59 "Hg15 mi
9:00 PM-8 °FClear.12 mph70%30.61 "Hg15 mi
8:00 PM-4 °FClear.14 mph65%30.63 "Hg15 mi
7:00 PM0 °FClear.15 mph65%30.63 "Hg15 mi
6:00 PM1 °FSunny.14 mph60%30.63 "Hg15 mi
5:00 PM3 °FSunny.16 mph60%30.64 "Hg15 mi
4:00 PM5 °FSunny.17 mph55%30.65 "Hg15 mi
3:00 PM3 °FSunny.20 mph60%30.65 "Hg15 mi
2:00 PM1 °FSunny.17 mph65%30.66 "Hg15 mi
1:00 PM1 °FSunny.15 mph60%30.68 "Hg15 mi
12:00 PM-2 °FSunny.15 mph65%30.69 "Hg15 mi
11:00 AM-8 °FSunny.12 mph64%30.70 "Hg15 mi
10:00 AM-11 °FPassing clouds.12 mph70%30.70 "Hg15 mi
9:00 AM-15 °FPassing clouds.14 mph69%30.70 "Hg15 mi
Weather by CustomWeather, © 2015

See weather overviewHow to use our weather pages